﻿測定場所 (Monitoring sites),日付 (Measurement date),時間 (Measurement time),線量率 最大値 (max) μGy/h,線量率 最小値 (min) μGy/h,線量率 平均値 (average) μGy/h,
江戸川 (Edogawa),2015-10-11,23:01～24:00,0.0647,0.0575,0.0609,
江戸川 (Edogawa),2015-10-11,22:01～23:00,0.0651,0.0581,0.0610,
江戸川 (Edogawa),2015-10-11,21:01～22:00,0.0629,0.0567,0.0603,
江戸川 (Edogawa),2015-10-11,20:01～21:00,0.0634,0.0566,0.0599,
江戸川 (Edogawa),2015-10-11,19:01～20:00,0.0634,0.0567,0.0602,
江戸川 (Edogawa),2015-10-11,18:01～19:00,0.0629,0.0552,0.0597,
江戸川 (Edogawa),2015-10-11,17:01～18:00,0.0636,0.0571,0.0600,
江戸川 (Edogawa),2015-10-11,16:01～17:00,0.0623,0.0563,0.0589,
江戸川 (Edogawa),2015-10-11,15:01～16:00,0.0635,0.0560,0.0595,
江戸川 (Edogawa),2015-10-11,14:01～15:00,0.0624,0.0560,0.0594,
江戸川 (Edogawa),2015-10-11,13:01～14:00,0.0628,0.0555,0.0595,
江戸川 (Edogawa),2015-10-11,12:01～13:00,0.0644,0.0575,0.0605,
江戸川 (Edogawa),2015-10-11,11:01～12:00,0.0649,0.0582,0.0613,
江戸川 (Edogawa),2015-10-11,10:01～11:00,0.0665,0.0586,0.0629,
江戸川 (Edogawa),2015-10-11,09:01～10:00,0.0734,0.0628,0.0683,
江戸川 (Edogawa),2015-10-11,08:01～09:00,0.0790,0.0690,0.0722,
江戸川 (Edogawa),2015-10-11,07:01～08:00,0.0745,0.0668,0.0708,
江戸川 (Edogawa),2015-10-11,06:01～07:00,0.0725,0.0610,0.0651,
江戸川 (Edogawa),2015-10-11,05:01～06:00,0.0686,0.0617,0.0650,
江戸川 (Edogawa),2015-10-11,04:01～05:00,0.0695,0.0628,0.0663,
江戸川 (Edogawa),2015-10-11,03:01～04:00,0.0706,0.0613,0.0664,
江戸川 (Edogawa),2015-10-11,02:01～03:00,0.0690,0.0611,0.0649,
江戸川 (Edogawa),2015-10-11,01:01～02:00,0.0704,0.0617,0.0655,
江戸川 (Edogawa),2015-10-11,00:01～01:00,0.0720,0.0631,0.0669,
江戸川 (Edogawa),2015-10-10,23:01～24:00,0.0701,0.0625,0.0661,
江戸川 (Edogawa),2015-10-10,22:01～23:00,0.0706,0.0630,0.0669,
江戸川 (Edogawa),2015-10-10,21:01～22:00,0.0669,0.0594,0.0632,
江戸川 (Edogawa),2015-10-10,20:01～21:00,0.0656,0.0596,0.0626,
江戸川 (Edogawa),2015-10-10,19:01～20:00,0.0647,0.0576,0.0616,
江戸川 (Edogawa),2015-10-10,18:01～19:00,0.0655,0.0593,0.0627,
江戸川 (Edogawa),2015-10-10,17:01～18:00,0.0665,0.0596,0.0632,
江戸川 (Edogawa),2015-10-10,16:01～17:00,0.0664,0.0593,0.0631,
江戸川 (Edogawa),2015-10-10,15:01～16:00,0.0671,0.0598,0.0628,
江戸川 (Edogawa),2015-10-10,14:01～15:00,0.0668,0.0593,0.0631,
江戸川 (Edogawa),2015-10-10,13:01～14:00,0.0658,0.0603,0.0630,
江戸川 (Edogawa),2015-10-10,12:01～13:00,0.0661,0.0586,0.0631,
江戸川 (Edogawa),2015-10-10,11:01～12:00,0.0661,0.0601,0.0629,
江戸川 (Edogawa),2015-10-10,10:01～11:00,0.0666,0.0606,0.0639,
江戸川 (Edogawa),2015-10-10,09:01～10:00,0.0675,0.0598,0.0635,
江戸川 (Edogawa),2015-10-10,08:01～09:00,0.0662,0.0603,0.0635,
江戸川 (Edogawa),2015-10-10,07:01～08:00,0.0672,0.0600,0.0632,
江戸川 (Edogawa),2015-10-10,06:01～07:00,0.0663,0.0589,0.0636,
江戸川 (Edogawa),2015-10-10,05:01～06:00,0.0658,0.0605,0.0633,
江戸川 (Edogawa),2015-10-10,04:01～05:00,0.0682,0.0597,0.0631,
江戸川 (Edogawa),2015-10-10,03:01～04:00,0.0666,0.0589,0.0633,
江戸川 (Edogawa),2015-10-10,02:01～03:00,0.0670,0.0591,0.0628,
江戸川 (Edogawa),2015-10-10,01:01～02:00,0.0665,0.0583,0.0627,
江戸川 (Edogawa),2015-10-10,00:01～01:00,0.0664,0.0578,0.0627,
江戸川 (Edogawa),2015-10-09,23:01～24:00,0.0664,0.0591,0.0622,
江戸川 (Edogawa),2015-10-09,22:01～23:00,0.0664,0.0592,0.0632,
江戸川 (Edogawa),2015-10-09,21:01～22:00,0.0662,0.0591,0.0627,
江戸川 (Edogawa),2015-10-09,20:01～21:00,0.0665,0.0590,0.0630,
江戸川 (Edogawa),2015-10-09,19:01～20:00,0.0669,0.0597,0.0628,
江戸川 (Edogawa),2015-10-09,18:01～19:00,0.0665,0.0586,0.0625,
江戸川 (Edogawa),2015-10-09,17:01～18:00,0.0667,0.0599,0.0629,
江戸川 (Edogawa),2015-10-09,16:01～17:00,0.0658,0.0596,0.0628,
江戸川 (Edogawa),2015-10-09,15:01～16:00,0.0661,0.0589,0.0625,
江戸川 (Edogawa),2015-10-09,14:01～15:00,0.0652,0.0584,0.0625,
江戸川 (Edogawa),2015-10-09,13:01～14:00,0.0659,0.0602,0.0624,
江戸川 (Edogawa),2015-10-09,12:01～13:00,0.0663,0.0583,0.0626,
江戸川 (Edogawa),2015-10-09,11:01～12:00,0.0667,0.0584,0.0625,
江戸川 (Edogawa),2015-10-09,10:01～11:00,0.0665,0.0584,0.0628,
江戸川 (Edogawa),2015-10-09,09:01～10:00,0.0665,0.0595,0.0623,
江戸川 (Edogawa),2015-10-09,08:01～09:00,0.0664,0.0588,0.0629,
江戸川 (Edogawa),2015-10-09,07:01～08:00,0.0665,0.0594,0.0630,
江戸川 (Edogawa),2015-10-09,06:01～07:00,0.0658,0.0583,0.0627,
江戸川 (Edogawa),2015-10-09,05:01～06:00,0.0649,0.0593,0.0625,
江戸川 (Edogawa),2015-10-09,04:01～05:00,0.0664,0.0580,0.0626,
江戸川 (Edogawa),2015-10-09,03:01～04:00,0.0674,0.0589,0.0628,
江戸川 (Edogawa),2015-10-09,02:01～03:00,0.0662,0.0599,0.0627,
江戸川 (Edogawa),2015-10-09,01:01～02:00,0.0663,0.0596,0.0624,
江戸川 (Edogawa),2015-10-09,00:01～01:00,0.0669,0.0588,0.0623,
江戸川 (Edogawa),2015-10-08,23:01～24:00,0.0661,0.0592,0.0621,
江戸川 (Edogawa),2015-10-08,22:01～23:00,0.0654,0.0581,0.0621,
江戸川 (Edogawa),2015-10-08,21:01～22:00,0.0653,0.0578,0.0620,
江戸川 (Edogawa),2015-10-08,20:01～21:00,0.0654,0.0591,0.0621,
江戸川 (Edogawa),2015-10-08,19:01～20:00,0.0671,0.0572,0.0620,
江戸川 (Edogawa),2015-10-08,18:01～19:00,0.0667,0.0567,0.0619,
江戸川 (Edogawa),2015-10-08,17:01～18:00,0.0649,0.0590,0.0621,
江戸川 (Edogawa),2015-10-08,16:01～17:00,0.0654,0.0585,0.0617,
江戸川 (Edogawa),2015-10-08,15:01～16:00,0.0651,0.0577,0.0617,
江戸川 (Edogawa),2015-10-08,14:01～15:00,0.0652,0.0580,0.0619,
江戸川 (Edogawa),2015-10-08,13:01～14:00,0.0647,0.0590,0.0621,
江戸川 (Edogawa),2015-10-08,12:01～13:00,0.0647,0.0585,0.0620,
江戸川 (Edogawa),2015-10-08,11:01～12:00,0.0660,0.0579,0.0621,
江戸川 (Edogawa),2015-10-08,10:01～11:00,0.0659,0.0592,0.0620,
江戸川 (Edogawa),2015-10-08,09:01～10:00,0.0645,0.0573,0.0616,
江戸川 (Edogawa),2015-10-08,08:01～09:00,0.0655,0.0583,0.0619,
江戸川 (Edogawa),2015-10-08,07:01～08:00,0.0649,0.0579,0.0611,
江戸川 (Edogawa),2015-10-08,06:01～07:00,0.0642,0.0576,0.0609,
江戸川 (Edogawa),2015-10-08,05:01～06:00,0.0642,0.0572,0.0607,
江戸川 (Edogawa),2015-10-08,04:01～05:00,0.0649,0.0587,0.0610,
江戸川 (Edogawa),2015-10-08,03:01～04:00,0.0639,0.0575,0.0613,
江戸川 (Edogawa),2015-10-08,02:01～03:00,0.0648,0.0577,0.0612,
江戸川 (Edogawa),2015-10-08,01:01～02:00,0.0645,0.0570,0.0610,
江戸川 (Edogawa),2015-10-08,00:01～01:00,0.0648,0.0583,0.0613,
江戸川 (Edogawa),2015-10-07,23:01～24:00,0.0668,0.0578,0.0612,
江戸川 (Edogawa),2015-10-07,22:01～23:00,0.0655,0.0575,0.0612,
江戸川 (Edogawa),2015-10-07,21:01～22:00,0.0644,0.0575,0.0615,
江戸川 (Edogawa),2015-10-07,20:01～21:00,0.0647,0.0583,0.0613,
江戸川 (Edogawa),2015-10-07,19:01～20:00,0.0658,0.0576,0.0611,
江戸川 (Edogawa),2015-10-07,18:01～19:00,0.0642,0.0584,0.0613,
江戸川 (Edogawa),2015-10-07,17:01～18:00,0.0652,0.0575,0.0614,
江戸川 (Edogawa),2015-10-07,16:01～17:00,0.0650,0.0570,0.0613,
江戸川 (Edogawa),2015-10-07,15:01～16:00,0.0648,0.0581,0.0614,
江戸川 (Edogawa),2015-10-07,14:01～15:00,0.0638,0.0563,0.0612,
江戸川 (Edogawa),2015-10-07,13:01～14:00,0.0659,0.0582,0.0619,
江戸川 (Edogawa),2015-10-07,12:01～13:00,0.0643,0.0569,0.0613,
江戸川 (Edogawa),2015-10-07,11:01～12:00,0.0644,0.0584,0.0613,
江戸川 (Edogawa),2015-10-07,10:01～11:00,0.0646,0.0579,0.0610,
江戸川 (Edogawa),2015-10-07,09:01～10:00,0.0665,0.0576,0.0615,
江戸川 (Edogawa),2015-10-07,08:01～09:00,0.0640,0.0578,0.0614,
江戸川 (Edogawa),2015-10-07,07:01～08:00,0.0653,0.0560,0.0613,
江戸川 (Edogawa),2015-10-07,06:01～07:00,0.0651,0.0586,0.0612,
江戸川 (Edogawa),2015-10-07,05:01～06:00,0.0657,0.0578,0.0607,
江戸川 (Edogawa),2015-10-07,04:01～05:00,0.0639,0.0585,0.0610,
江戸川 (Edogawa),2015-10-07,03:01～04:00,0.0636,0.0573,0.0604,
江戸川 (Edogawa),2015-10-07,02:01～03:00,0.0641,0.0579,0.0610,
江戸川 (Edogawa),2015-10-07,01:01～02:00,0.0650,0.0569,0.0609,
江戸川 (Edogawa),2015-10-07,00:01～01:00,0.0641,0.0578,0.0608,
江戸川 (Edogawa),2015-10-06,23:01～24:00,0.0632,0.0578,0.0607,
江戸川 (Edogawa),2015-10-06,22:01～23:00,0.0658,0.0575,0.0611,
江戸川 (Edogawa),2015-10-06,21:01～22:00,0.0637,0.0580,0.0610,
江戸川 (Edogawa),2015-10-06,20:01～21:00,0.0664,0.0571,0.0607,
江戸川 (Edogawa),2015-10-06,19:01～20:00,0.0640,0.0577,0.0612,
江戸川 (Edogawa),2015-10-06,18:01～19:00,0.0653,0.0584,0.0611,
江戸川 (Edogawa),2015-10-06,17:01～18:00,0.0641,0.0573,0.0612,
江戸川 (Edogawa),2015-10-06,16:01～17:00,0.0647,0.0581,0.0613,
江戸川 (Edogawa),2015-10-06,15:01～16:00,0.0643,0.0590,0.0615,
江戸川 (Edogawa),2015-10-06,14:01～15:00,0.0659,0.0568,0.0612,
江戸川 (Edogawa),2015-10-06,13:01～14:00,0.0655,0.0588,0.0616,
江戸川 (Edogawa),2015-10-06,12:01～13:00,0.0653,0.0589,0.0613,
江戸川 (Edogawa),2015-10-06,11:01～12:00,0.0649,0.0586,0.0614,
江戸川 (Edogawa),2015-10-06,10:01～11:00,0.0644,0.0577,0.0611,
江戸川 (Edogawa),2015-10-06,09:01～10:00,0.0658,0.0586,0.0614,
江戸川 (Edogawa),2015-10-06,08:01～09:00,0.0648,0.0583,0.0613,
江戸川 (Edogawa),2015-10-06,07:01～08:00,0.0639,0.0574,0.0610,
江戸川 (Edogawa),2015-10-06,06:01～07:00,0.0645,0.0580,0.0609,
江戸川 (Edogawa),2015-10-06,05:01～06:00,0.0649,0.0572,0.0611,
江戸川 (Edogawa),2015-10-06,04:01～05:00,0.0644,0.0583,0.0611,
江戸川 (Edogawa),2015-10-06,03:01～04:00,0.0649,0.0579,0.0611,
江戸川 (Edogawa),2015-10-06,02:01～03:00,0.0641,0.0576,0.0611,
江戸川 (Edogawa),2015-10-06,01:01～02:00,0.0651,0.0581,0.0613,
江戸川 (Edogawa),2015-10-06,00:01～01:00,0.0649,0.0579,0.0611,
江戸川 (Edogawa),2015-10-05,23:01～24:00,0.0656,0.0571,0.0610,
江戸川 (Edogawa),2015-10-05,22:01～23:00,0.0640,0.0567,0.0611,
江戸川 (Edogawa),2015-10-05,21:01～22:00,0.0643,0.0581,0.0609,
江戸川 (Edogawa),2015-10-05,20:01～21:00,0.0654,0.0571,0.0615,
江戸川 (Edogawa),2015-10-05,19:01～20:00,0.0638,0.0582,0.0614,
江戸川 (Edogawa),2015-10-05,18:01～19:00,0.0644,0.0580,0.0613,
江戸川 (Edogawa),2015-10-05,17:01～18:00,0.0632,0.0575,0.0610,
江戸川 (Edogawa),2015-10-05,16:01～17:00,0.0637,0.0566,0.0610,
江戸川 (Edogawa),2015-10-05,15:01～16:00,0.0648,0.0582,0.0614,
江戸川 (Edogawa),2015-10-05,14:01～15:00,0.0664,0.0569,0.0611,
江戸川 (Edogawa),2015-10-05,13:01～14:00,0.0645,0.0573,0.0611,
江戸川 (Edogawa),2015-10-05,12:01～13:00,0.0664,0.0590,0.0616,
江戸川 (Edogawa),2015-10-05,11:01～12:00,0.0637,0.0578,0.0610,
江戸川 (Edogawa),2015-10-05,10:01～11:00,0.0651,0.0577,0.0611,
江戸川 (Edogawa),2015-10-05,09:01～10:00,0.0643,0.0565,0.0608,
江戸川 (Edogawa),2015-10-05,08:01～09:00,0.0641,0.0576,0.0608,
江戸川 (Edogawa),2015-10-05,07:01～08:00,0.0640,0.0578,0.0610,
江戸川 (Edogawa),2015-10-05,06:01～07:00,0.0640,0.0572,0.0612,
江戸川 (Edogawa),2015-10-05,05:01～06:00,0.0643,0.0578,0.0610,
江戸川 (Edogawa),2015-10-05,04:01～05:00,0.0655,0.0577,0.0613,
江戸川 (Edogawa),2015-10-05,03:01～04:00,0.0662,0.0578,0.0614,
江戸川 (Edogawa),2015-10-05,02:01～03:00,0.0645,0.0578,0.0613,
江戸川 (Edogawa),2015-10-05,01:01～02:00,0.0658,0.0576,0.0614,
江戸川 (Edogawa),2015-10-05,00:01～01:00,0.0644,0.0582,0.0610,
